Weather History for Breckenridge, TX

Change the Weather History Date:

Saturday, February 22, 2014

  Actual Average (KABI) Record (KABI)
Temperature  
Mean Temperature 64 °F 50 °F  
Max Temperature 79 °F 62 °F 93 °F (1996)
Min Temperature 48 °F 38 °F 16 °F (1894)
Degree Days  
Heating Degree Days 2 15  
Month to date heating degree days 379  
Since 1 July heating degree days 2048  
Cooling Degree Days 0 0  
Month to date cooling degree days 0  
Year to date cooling degree days 1  
Growing Degree Days 14 (Base 50)    
Moisture  
Dew Point 32 °F    
Average Humidity 34    
Maximum Humidity 66    
Minimum Humidity 16    
Precipitation  
Precipitation 0.00 in 0.05 in 0.83 in (1958)
Month to date precipitation 1.05  
Year to date precipitation 2.07  
Sea Level Pressure  
Sea Level Pressure 29.87 in    
Wind  
Wind Speed 11 mph (South)    
Max Wind Speed 17 mph    
Max Gust Speed 25 mph    
Visibility 10 miles    
Events      
T = Trace of Precipitation, MM = Missing Value Source: NWS Daily Summary

Daily Weather History Graph

Daily Weather History Graph

Search for Another Location

Airport:

Trip Planner

Search our weather history database for the weather conditions in past years. The results will help you decide how hot, cold, wet, or windy it might be!

Date:

Astronomy

Feb. 22, 2014 Rise Set
Actual Time 7:11 AM CST 6:27 PM CST
Civil Twilight 6:46 AM CST 6:52 PM CST
Nautical Twilight 6:17 AM CST 7:20 PM CST
Astronomical Twilight 5:49 AM CST 7:49 PM CST
Moon 1:00 AM CST (2/22) 11:47 AM CST (2/22)
Length of Visible Light 12h 05m
Length of Day
11h 15m
Waning Gibbous, 50% of the Moon is Illuminated
Feb 22
Waning Gibbous
Mar 1
New
Mar 8
First Quarter
Mar 16
Full
Mar 23
Last Quarter

Hourly Weather History & Observations

Time (CST) Temp. Dew Point Humidity Pressure Visibility Wind Dir Wind Speed Gust Speed Precip Events Conditions
12:10 AM 54.5 °F 25.7 °F 33% 29.95 in 10.0 mi SSE 11.5 mph - N/A   Clear
12:30 AM 54.7 °F 25.3 °F 32% 29.95 in 10.0 mi SSE 9.2 mph - N/A   Clear
12:50 AM 54.1 °F 25.3 °F 33% 29.95 in 10.0 mi SSE 9.2 mph - N/A   Clear
1:10 AM 54.0 °F 25.2 °F 33% 29.95 in 10.0 mi South 8.1 mph - N/A   Clear
1:30 AM 53.6 °F 25.2 °F 33% 29.94 in 10.0 mi South 9.2 mph - N/A   Clear
1:50 AM 53.1 °F 25.2 °F 34% 29.94 in 10.0 mi South 12.7 mph - N/A   Clear
2:10 AM 54.0 °F 24.8 °F 32% 29.94 in 10.0 mi South 12.7 mph 21.9 mph N/A   Clear
2:30 AM 53.8 °F 25.0 °F 33% 29.93 in 10.0 mi SSE 15.0 mph - N/A   Clear
2:50 AM 53.1 °F 25.5 °F 34% 29.93 in 10.0 mi SSE 15.0 mph - N/A   Clear
3:10 AM 52.9 °F 25.5 °F 35% 29.92 in 10.0 mi SSE 15.0 mph - N/A   Clear
3:30 AM 52.3 °F 25.7 °F 36% 29.92 in 10.0 mi SSE 13.8 mph - N/A   Clear
3:50 AM 51.4 °F 26.4 °F 38% 29.92 in 10.0 mi SSE 10.4 mph 20.7 mph N/A   Clear
4:10 AM 50.5 °F 26.6 °F 39% 29.91 in 10.0 mi SSE 11.5 mph 17.3 mph N/A   Clear
4:30 AM 50.0 °F 26.6 °F 40% 29.91 in 10.0 mi SSE 11.5 mph 17.3 mph N/A   Clear
4:50 AM 49.5 °F 27.0 °F 42% 29.91 in 10.0 mi South 11.5 mph - N/A   Clear
5:10 AM 49.1 °F 27.0 °F 42% 29.91 in 10.0 mi South 11.5 mph 16.1 mph N/A   Clear
5:30 AM 49.3 °F 26.4 °F 41% 29.92 in 10.0 mi South 11.5 mph - N/A   Clear
5:50 AM 49.3 °F 26.1 °F 40% 29.92 in 10.0 mi South 10.4 mph 17.3 mph N/A   Clear
6:10 AM 49.3 °F 25.7 °F 40% 29.92 in 10.0 mi South 8.1 mph - N/A   Clear
6:30 AM 49.3 °F 25.3 °F 39% 29.92 in 10.0 mi South 10.4 mph - N/A   Clear
6:50 AM 49.1 °F 25.0 °F 39% 29.93 in 10.0 mi South 10.4 mph - N/A   Clear
7:10 AM 48.6 °F 24.8 °F 39% 29.93 in 10.0 mi South 5.8 mph - N/A   Clear
7:30 AM 48.4 °F 24.6 °F 39% 29.93 in 10.0 mi South 9.2 mph - N/A   Clear
7:50 AM 49.6 °F 25.0 °F 38% 29.93 in 10.0 mi SSW 8.1 mph - N/A   Clear
8:10 AM 51.4 °F 25.9 °F 37% 29.93 in 10.0 mi South 9.2 mph - N/A   Clear
8:30 AM 52.9 °F 27.3 °F 37% 29.93 in 10.0 mi SSW 8.1 mph - N/A   Clear
8:50 AM 54.0 °F 28.2 °F 37% 29.93 in 10.0 mi SSW 12.7 mph - N/A   Clear
9:10 AM 56.1 °F 29.5 °F 36% 29.94 in 10.0 mi SSW 12.7 mph 16.1 mph N/A   Clear
9:30 AM 58.5 °F 31.1 °F 35% 29.94 in 10.0 mi SSW 12.7 mph - N/A   Clear
9:50 AM 59.9 °F 31.8 °F 35% 29.94 in 10.0 mi SW 15.0 mph - N/A   Clear
10:10 AM 62.1 °F 32.2 °F 33% 29.94 in 10.0 mi SSW 13.8 mph 17.3 mph N/A   Clear
10:30 AM 64.6 °F 33.4 °F 31% 29.93 in 10.0 mi SSW 13.8 mph 18.4 mph N/A   Clear
10:50 AM 65.7 °F 34.2 °F 31% 29.93 in 10.0 mi WSW 17.3 mph 24.2 mph N/A   Clear
11:10 AM 66.2 °F 34.3 °F 31% 29.93 in 10.0 mi SSW 16.1 mph 19.6 mph N/A   Clear
11:30 AM 67.5 °F 34.7 °F 30% 29.92 in 10.0 mi SW 12.7 mph - N/A   Clear
11:50 AM 69.3 °F 35.1 °F 28% 29.91 in 10.0 mi SW 11.5 mph 16.1 mph N/A   Clear
12:10 PM 71.1 °F 34.7 °F 26% 29.90 in 10.0 mi SW 16.1 mph 19.6 mph N/A   Clear
12:30 PM 72.1 °F 34.3 °F 25% 29.88 in 10.0 mi WSW 13.8 mph 18.4 mph N/A   Clear
12:50 PM 72.3 °F 33.1 °F 24% 29.87 in 10.0 mi WSW 12.7 mph 16.1 mph N/A   Clear
1:10 PM 73.0 °F 33.6 °F 24% 29.86 in 10.0 mi WSW 8.1 mph - N/A   Clear
1:30 PM 73.9 °F 33.6 °F 23% 29.84 in 10.0 mi SW 10.4 mph 16.1 mph N/A   Clear
1:50 PM 75.2 °F 33.4 °F 22% 29.83 in 10.0 mi WSW 8.1 mph - N/A   Clear
2:10 PM 76.5 °F 33.6 °F 21% 29.82 in 10.0 mi SW 4.6 mph - N/A   Clear
2:30 PM 77.2 °F 33.6 °F 21% 29.81 in 10.0 mi South 10.4 mph 19.6 mph N/A   Clear
2:50 PM 77.7 °F 34.3 °F 21% 29.81 in 10.0 mi WSW 8.1 mph - N/A   Clear
3:10 PM 77.7 °F 34.3 °F 21% 29.80 in 10.0 mi South 10.4 mph - N/A   Clear
3:30 PM 79.0 °F 34.3 °F 20% 29.79 in 10.0 mi SSW 8.1 mph 11.5 mph N/A   Clear
3:50 PM 79.7 °F 31.5 °F 17% 29.79 in 10.0 mi SW 11.5 mph 17.3 mph N/A   Clear
4:10 PM 79.5 °F 30.6 °F 17% 29.78 in 10.0 mi SW 8.1 mph - N/A   Clear
4:30 PM 79.7 °F 29.1 °F 16% 29.78 in 10.0 mi SW 12.7 mph 25.3 mph N/A   Clear
4:50 PM 79.3 °F 30.6 °F 17% 29.77 in 10.0 mi SW 8.1 mph - N/A   Clear
5:10 PM 78.1 °F 31.1 °F 18% 29.77 in 10.0 mi North - - N/A   Clear
5:30 PM 77.0 °F 31.1 °F 19% 29.77 in 10.0 mi SSW 6.9 mph - N/A   Clear
5:50 PM 75.6 °F 30.9 °F 19% 29.77 in 10.0 mi SSW 3.5 mph - N/A   Clear
6:10 PM 75.6 °F 30.2 °F 19% 29.77 in 10.0 mi South 4.6 mph - N/A   Clear
6:30 PM 73.2 °F 30.6 °F 21% 29.76 in 10.0 mi SE 6.9 mph - N/A   Clear
6:50 PM 69.8 °F 31.5 °F 24% 29.77 in 10.0 mi SE 6.9 mph - N/A   Clear
7:10 PM 68.2 °F 31.6 °F 26% 29.77 in 10.0 mi SE 6.9 mph - N/A   Clear
7:30 PM 66.0 °F 32.0 °F 28% 29.78 in 10.0 mi SE 8.1 mph - N/A   Clear
7:50 PM 66.6 °F 32.0 °F 28% 29.79 in 10.0 mi SE 10.4 mph - N/A   Clear
8:10 PM 66.2 °F 35.2 °F 32% 29.79 in 10.0 mi SE 11.5 mph - N/A   Clear
8:30 PM 65.7 °F 40.1 °F 39% 29.79 in 10.0 mi SE 9.2 mph - N/A   Clear
8:50 PM 64.9 °F 45.0 °F 48% 29.80 in 10.0 mi SSE 9.2 mph - N/A   Clear
9:10 PM 66.0 °F 46.4 °F 49% 29.81 in 10.0 mi SSE 11.5 mph - N/A   Clear
9:30 PM 64.9 °F 46.8 °F 52% 29.81 in 10.0 mi SSE 10.4 mph - N/A   Clear
9:50 PM 64.9 °F 48.4 °F 55% 29.81 in 10.0 mi South 12.7 mph - N/A   Clear
10:10 PM 64.8 °F 48.6 °F 56% 29.82 in 10.0 mi SSW 13.8 mph - N/A   Clear
10:30 PM 67.3 °F 48.2 °F 50% 29.83 in 10.0 mi SSW 16.1 mph - N/A   Clear
10:50 PM 65.1 °F 47.7 °F 53% 29.83 in 10.0 mi SSW 10.4 mph - N/A   Clear
11:10 PM 62.6 °F 46.9 °F 57% 29.83 in 10.0 mi SSE 9.2 mph - N/A   Clear
11:30 PM 60.1 °F 48.2 °F 65% 29.83 in 10.0 mi SSE 8.1 mph - N/A   Clear
11:50 PM 60.1 °F 48.7 °F 66% 29.83 in 10.0 mi SSE 9.2 mph - N/A   Clear